Wind_Speed
24 24 25 25 25 26 23 20 19 19 20 20 20 20 20 20 20 20 18 16 16 15 15 15 14 14 14 13 12 12 12 11 11 10 10 10 9 9 8 8 8 7 7 7 8 8 9 9 9
26 26 26 26 27 25 22 20 20 21 21 22 22 21 21 22 21 21 19 18 17 17 16 16 15 15 15 14 14 13 13 12 12 11 11 11 10 9 9 9 8 8 8 8 9 9 10 10 10
27 28 27 27 27 25 22 21 22 23 23 23 23 23 23 23 22 22 20 19 18 18 17 17 16 16 16 16 15 15 14 14 13 12 12 12 11 11 10 10 9 9 9 10 10 10 10 11 11
29 29 29 29 28 25 23 22 24 24 24 24 24 24 24 24 23 23 21 20 20 19 18 18 17 17 17 17 17 16 15 15 14 14 13 13 12 12 11 11 11 10 10 11 11 11 11 11 12
30 31 31 31 28 26 25 24 25 26 25 25 25 25 25 25 24 24 23 22 21 20 20 19 19 18 18 18 18 18 17 16 16 15 15 14 14 13 13 13 12 12 12 12 12 12 12 12 13
32 32 33 31 29 27 27 26 27 27 27 26 26 26 26 26 25 25 25 24 23 22 21 21 21 20 20 20 20 20 19 18 17 17 16 16 15 15 14 14 14 14 14 13 13 13 14 14 14
33 33 34 33 31 29 28 28 28 29 28 27 27 28 27 27 27 27 26 26 25 24 23 22 22 22 21 22 22 21 21 20 19 18 18 17 17 16 16 16 16 16 16 15 15 15 15 15 15
33 35 34 34 33 31 30 30 30 30 29 29 29 30 29 29 28 28 27 27 27 26 25 24 24 23 23 23 23 23 22 21 21 20 19 19 18 18 18 17 17 17 17 17 17 17 17 17 16
32 35 35 34 34 33 33 32 31 31 31 30 31 31 30 29 29 30 29 28 28 28 27 26 26 25 25 25 25 24 23 22 22 21 21 20 20 19 19 19 19 19 19 19 18 18 18 18 18
32 34 33 33 34 34 34 34 33 32 32 32 32 32 31 31 30 31 30 30 29 29 29 29 28 27 27 27 27 26 25 24 24 23 22 22 22 21 21 21 21 21 21 20 20 20 20 20 19
32 32 31 33 34 35 35 35 35 35 34 33 33 33 33 32 32 32 32 32 31 31 31 31 30 29 29 29 29 28 27 26 26 25 24 24 24 24 23 23 23 23 22 22 22 22 21 21 21
32 32 31 31 34 36 36 36 37 37 36 35 35 35 35 34 34 34 34 34 34 34 33 33 32 32 31 31 31 29 28 27 27 27 26 26 26 25 25 24 24 24 24 23 23 23 23 23 23
32 32 32 32 34 36 38 38 38 38 37 37 37 38 37 37 36 36 37 37 36 36 35 35 34 34 33 33 32 31 30 29 29 28 28 28 27 27 26 26 26 25 25 25 25 25 25 25 25
32 33 33 33 34 36 39 39 39 38 39 39 39 39 39 38 38 38 38 38 38 38 37 37 37 36 35 35 34 32 31 31 30 30 30 30 29 29 28 28 28 27 27 27 27 27 27 27 27
32 34 34 32 35 36 39 40 40 39 40 40 40 41 41 39 40 40 39 39 39 39 39 39 38 38 37 36 36 34 34 33 32 32 32 32 31 31 30 30 30 29 29 29 29 30 29 29 28
31 34 34 33 34 35 38 39 39 40 41 40 41 41 42 41 40 40 40 40 40 40 41 40 40 39 39 38 37 36 36 36 35 34 34 33 33 33 32 32 31 31 31 31 31 31 31 31 30
31 32 33 34 36 36 38 39 38 39 41 41 41 42 42 42 41 41 41 41 41 41 41 41 41 41 40 40 40 38 38 37 37 36 35 35 35 35 34 33 33 33 33 33 33 33 33 33 32
30 32 34 34 36 38 39 39 38 39 40 40 41 41 42 42 42 42 42 42 42 42 42 42 42 42 42 42 41 41 40 39 38 38 38 37 37 37 36 35 35 35 35 35 35 35 35 34 34
31 33 34 34 34 37 39 39 38 38 39 40 40 41 42 43 43 43 43 44 44 43 43 43 43 43 44 44 43 43 42 41 41 40 39 38 38 38 38 37 37 37 37 37 37 37 36 35 35
31 33 33 34 34 36 39 38 36 36 38 39 39 40 41 42 43 43 43 44 45 45 44 45 45 44 44 44 45 45 45 44 43 43 42 40 40 40 40 40 40 39 39 39 38 38 38 37 37
31 32 34 35 34 35 37 37 35 35 37 39 40 40 40 41 42 43 44 44 45 45 45 45 45 45 45 45 46 47 46 45 44 43 42 42 42 42 42 42 42 41 41 40 40 39 39 39 39
33 33 35 36 36 35 35 37 34 34 36 38 38 39 40 40 40 41 42 44 44 45 45 45 46 46 47 47 47 47 47 46 45 44 44 44 44 44 44 44 43 42 42 42 41 41 40 40 40
34 34 35 36 38 38 35 38 33 33 35 35 35 36 38 39 40 40 40 42 43 44 45 45 45 46 47 47 47 47 47 47 46 46 45 45 45 45 45 45 45 44 43 43 43 42 41 41 41
34 34 35 36 38 38 35 37 33 32 33 34 35 36 37 38 39 39 40 41 42 43 44 44 45 46 46 47 47 47 47 48 48 47 46 46 46 47 46 46 46 45 45 44 44 44 43 43 43
33 34 36 38 38 38 35 37 34 33 34 35 36 37 37 38 38 39 40 41 41 42 43 44 46 47 47 48 48 48 48 49 49 49 48 47 47 47 47 47 48 47 46 46 45 45 44 44 44
32 34 36 38 40 40 38 38 35 35 35 37 38 38 38 38 39 40 41 41 42 42 43 45 46 47 48 48 48 48 49 50 50 50 49 49 48 48 48 48 48 48 48 47 47 46 46 46 46
34 34 35 39 41 43 41 40 38 37 37 37 38 39 39 40 41 41 41 42 42 43 43 45 46 47 49 49 49 49 49 50 50 51 50 50 50 50 50 50 50 50 51 50 49 48 48 48 47
35 35 36 38 41 43 43 41 40 37 37 38 38 39 40 41 41 42 42 43 43 43 44 45 47 48 49 49 50 50 50 51 51 51 50 50 51 52 51 51 51 52 52 51 51 51 49 49 49
35 36 37 38 40 42 43 41 39 39 39 39 39 40 41 41 42 42 42 42 43 43 43 45 47 49 50 50 50 50 50 51 51 51 51 52 52 52 52 52 53 53 53 53 53 52 51 50 50
36 36 37 38 39 41 44 43 37 39 40 41 42 41 42 43 43 44 44 44 43 43 43 44 46 48 49 50 51 51 51 52 52 51 52 52 53 53 53 54 54 54 54 54 54 53 52 51 50
Wind_Direction
247 247 247 248 249 250 251 254 253 251 251 252 250 250 252 254 255 255 256 254 253 252 253 255 257 257 257 257 256 256 255 253 252 253 256 258 259 258 256 257 261 265 270 276 280 284 288 293 297
247 247 247 248 249 250 251 252 252 253 252 251 251 251 252 253 254 255 255 253 251 251 252 253 254 255 255 254 253 254 255 255 254 255 258 258 260 259 257 257 260 263 269 275 280 282 285 290 293
246 246 246 247 248 250 250 249 251 252 251 251 251 250 250 251 252 254 253 252 250 250 251 252 253 253 253 252 251 252 254 256 256 258 260 261 261 258 256 257 259 263 270 276 280 283 286 289 292
246 246 245 246 247 248 247 248 252 252 251 251 251 251 250 250 250 252 252 251 250 249 250 251 252 253 253 251 251 252 254 256 257 258 260 261 261 259 257 256 259 265 271 276 279 283 288 290 292
244 245 245 246 246 246 245 245 248 250 252 252 251 251 251 251 250 250 250 251 251 250 249 249 249 251 252 251 251 253 255 256 257 258 259 261 262 260 258 258 260 265 270 274 277 281 286 289 291
243 244 245 245 245 244 244 245 248 249 251 252 252 252 250 251 250 249 249 250 251 250 249 249 249 250 250 250 251 253 254 255 256 256 257 260 262 261 260 259 262 266 270 272 276 279 284 287 289
243 244 245 245 244 243 244 246 247 249 251 253 253 253 251 251 250 250 250 250 251 250 250 250 250 251 251 250 251 252 253 254 254 255 256 259 261 261 261 260 263 267 270 272 275 278 282 285 286
245 246 245 245 244 243 244 246 248 249 251 253 253 253 252 251 251 252 252 251 251 251 250 249 250 250 250 251 251 253 254 254 254 254 255 258 260 261 262 262 264 267 270 271 274 278 281 283 285
244 244 245 245 245 244 244 246 247 249 251 252 253 253 253 253 251 252 252 251 251 252 251 250 249 250 250 251 252 252 253 253 253 254 254 256 258 259 262 264 266 268 270 270 273 277 280 282 284
244 245 247 247 247 246 245 246 246 248 250 251 253 254 254 253 252 251 251 251 252 252 252 252 252 251 250 250 251 253 252 252 253 254 254 256 257 259 261 264 266 268 269 270 273 276 279 281 284
246 247 247 247 248 248 247 247 247 248 249 251 252 253 253 252 252 252 252 252 252 253 253 253 253 253 252 251 251 253 252 252 253 254 255 256 258 259 261 264 266 268 268 269 272 275 278 280 282
248 248 249 250 249 248 248 248 249 249 250 252 253 253 253 253 253 252 252 252 253 253 254 255 254 254 253 252 252 253 252 252 253 254 255 256 258 260 262 264 266 268 269 269 271 274 276 279 281
249 250 251 252 252 250 249 250 250 251 251 252 254 254 255 255 255 254 253 253 253 254 255 255 255 254 253 252 252 253 252 252 253 254 255 256 258 260 262 263 265 268 269 269 270 272 276 278 280
251 251 253 253 253 252 251 251 252 253 253 253 254 254 255 256 256 255 254 253 253 254 255 255 255 254 253 253 253 253 253 253 253 254 255 257 259 260 263 264 265 267 269 269 271 273 275 278 279
253 254 254 254 254 254 253 252 252 254 254 255 255 256 256 256 257 256 255 254 253 253 254 254 254 254 254 253 254 253 253 253 254 255 255 258 259 261 262 264 265 267 269 270 272 274 276 278 279
256 256 256 255 257 256 256 255 255 256 256 256 256 256 256 256 257 257 255 254 253 253 253 253 253 254 253 253 253 253 253 253 253 254 256 257 259 261 262 264 265 267 268 270 273 274 276 277 278
260 259 260 258 259 259 259 259 259 259 258 257 257 257 256 256 257 257 256 254 253 253 252 252 252 253 253 252 252 252 252 253 254 254 256 258 259 261 263 264 266 267 268 270 273 274 275 276 277
264 263 263 263 262 261 260 260 261 261 260 258 257 257 256 257 258 258 257 255 254 253 252 252 252 253 254 253 252 252 253 253 254 254 256 258 259 261 263 264 266 267 268 270 272 274 275 275 276
266 266 266 265 265 265 264 263 263 261 259 259 259 258 257 257 258 258 257 256 255 254 253 253 254 253 254 253 253 252 252 252 253 253 256 258 259 260 262 263 265 266 268 269 271 273 274 274 275
268 268 268 267 267 269 267 266 264 262 261 260 260 259 258 258 259 257 256 256 256 255 253 253 253 253 253 253 252 251 251 252 253 254 256 258 260 261 261 262 264 266 267 269 270 272 273 273 274
271 272 270 271 269 270 271 268 265 263 261 262 262 261 261 260 260 258 257 257 256 256 255 254 254 253 253 253 252 251 251 252 253 254 257 258 259 261 262 263 264 265 267 268 269 271 272 273 273
273 273 273 272 272 272 273 273 267 266 265 264 263 263 264 263 261 259 258 257 257 256 256 255 254 253 253 253 252 252 252 252 253 254 257 257 259 261 263 263 264 266 267 268 269 271 271 272 274
274 273 272 273 273 272 273 275 271 268 268 267 266 266 265 265 264 263 261 260 258 256 255 254 254 253 252 252 252 252 251 252 252 254 256 258 259 261 263 264 264 264 266 267 269 270 271 273 273
274 273 273 273 273 272 273 275 273 271 272 271 269 267 265 265 265 266 265 262 259 256 255 255 254 253 252 252 252 252 251 251 252 255 257 258 259 260 261 263 264 264 265 266 268 269 270 271 273
275 274 275 275 275 274 274 274 275 274 273 272 271 269 266 264 264 265 265 264 261 258 256 255 254 253 251 252 251 252 252 251 253 255 257 258 259 260 261 262 263 263 265 266 267 268 270 271 272
275 276 275 277 277 276 274 273 276 276 274 273 273 271 269 266 265 265 266 265 263 261 259 257 255 253 252 252 252 253 253 253 253 255 257 258 258 259 259 262 263 263 264 265 266 269 270 271 272
274 274 275 276 276 276 275 274 275 276 276 275 274 272 270 269 268 267 265 265 265 263 259 258 256 254 253 254 254 254 254 254 254 255 257 258 258 259 259 261 262 263 264 265 266 268 270 271 272
273 274 275 275 276 278 278 278 277 277 277 276 276 274 273 272 270 268 267 266 265 264 260 258 258 256 255 255 254 254 255 255 256 256 257 258 258 259 260 261 262 263 263 264 265 267 269 270 271
274 274 274 275 276 277 279 279 279 280 279 279 277 275 273 270 268 267 268 267 265 263 262 261 260 258 257 255 254 254 254 255 256 256 257 258 258 259 260 262 262 262 263 264 265 266 267 269 269
276 274 275 275 276 277 277 278 281 281 280 278 278 276 274 272 270 269 269 268 266 264 262 262 261 259 258 257 256 255 255 256 256 257 257 258 259 259 260 262 262 263 263 263 264 265 266 267 269
Height
5823 5824 5825 5827 5828 5829 5832 5836 5837 5838 5840 5841 5842 5843 5844 5845 5847 5849 5849 5850 5851 5852 5853 5854 5854 5855 5855 5856 5856 5857 5857 5858 5858 5858 5858 5859 5859 5859 5859 5859 5859 5859 5859 5859 5859 5859 5858 5858 5857
5818 5819 5821 5822 5823 5825 5829 5832 5833 5835 5836 5837 5838 5840 5841 5841 5843 5843 5845 5847 5848 5849 5850 5851 5852 5852 5853 5853 5854 5855 5855 5856 5856 5856 5857 5857 5857 5857 5858 5858 5858 5858 5858 5858 5857 5857 5857 5856 5855
5813 5814 5816 5817 5819 5822 5826 5828 5829 5830 5831 5832 5834 5836 5837 5838 5839 5839 5842 5843 5844 5846 5847 5848 5849 5850 5850 5851 5852 5852 5853 5853 5854 5854 5855 5855 5855 5855 5856 5856 5856 5856 5856 5856 5856 5855 5855 5854 5854
5807 5808 5810 5812 5814 5818 5821 5823 5824 5825 5827 5828 5830 5831 5833 5834 5835 5836 5838 5839 5841 5842 5844 5844 5845 5846 5847 5848 5849 5849 5850 5851 5851 5852 5852 5852 5853 5853 5853 5854 5854 5854 5854 5854 5854 5853 5853 5852 5851
5800 5802 5804 5805 5809 5813 5816 5818 5819 5820 5822 5824 5825 5826 5828 5829 5831 5832 5833 5835 5836 5838 5840 5841 5842 5843 5844 5845 5845 5846 5847 5848 5848 5849 5849 5850 5850 5851 5851 5851 5851 5852 5852 5851 5851 5851 5850 5850 5849
5794 5796 5797 5800 5804 5808 5811 5813 5814 5815 5817 5819 5820 5821 5823 5824 5826 5827 5829 5830 5832 5834 5836 5837 5838 5839 5840 5841 5842 5843 5844 5844 5845 5846 5846 5847 5847 5848 5848 5848 5849 5849 5849 5849 5848 5848 5847 5847 5846
5788 5789 5791 5794 5798 5802 5805 5806 5808 5810 5812 5814 5815 5816 5818 5819 5821 5822 5824 5826 5827 5829 5831 5832 5833 5834 5836 5837 5838 5839 5839 5840 5841 5842 5843 5843 5844 5844 5845 5845 5845 5846 5846 5845 5845 5845 5845 5844 5843
5781 5782 5784 5788 5791 5796 5799 5800 5802 5804 5806 5808 5809 5810 5812 5814 5816 5817 5819 5821 5823 5824 5826 5827 5828 5830 5831 5832 5833 5834 5835 5836 5837 5838 5839 5840 5840 5841 5841 5841 5842 5842 5842 5842 5842 5842 5841 5841 5840
5772 5775 5777 5782 5785 5789 5792 5793 5796 5797 5799 5801 5803 5804 5807 5809 5810 5812 5813 5815 5817 5819 5820 5822 5823 5824 5826 5827 5828 5829 5830 5832 5833 5834 5835 5835 5836 5836 5837 5838 5838 5838 5838 5838 5838 5838 5838 5837 5836
5765 5767 5772 5776 5778 5781 5784 5786 5788 5790 5792 5795 5797 5798 5800 5802 5804 5806 5807 5810 5811 5813 5814 5816 5817 5819 5820 5821 5823 5824 5825 5827 5828 5829 5830 5831 5831 5832 5833 5833 5834 5834 5834 5834 5834 5834 5834 5833 5832
5758 5762 5766 5768 5771 5773 5775 5778 5780 5783 5786 5788 5790 5792 5793 5795 5797 5799 5801 5803 5805 5806 5808 5809 5811 5812 5814 5815 5817 5818 5820 5821 5822 5824 5825 5826 5827 5827 5828 5829 5829 5829 5829 5829 5829 5829 5829 5829 5828
5751 5755 5758 5761 5762 5764 5766 5769 5773 5775 5779 5780 5782 5784 5786 5788 5790 5792 5794 5796 5797 5799 5800 5802 5804 5805 5807 5808 5810 5812 5814 5815 5817 5818 5819 5820 5821 5822 5823 5824 5824 5824 5824 5824 5825 5825 5824 5824 5823
5745 5748 5750 5753 5754 5756 5758 5760 5764 5767 5770 5772 5774 5775 5778 5780 5782 5784 5785 5787 5789 5791 5793 5794 5796 5798 5799 5801 5803 5805 5807 5809 5810 5812 5813 5814 5816 5817 5817 5818 5819 5819 5819 5819 5819 5819 5819 5819 5818
5738 5740 5743 5745 5746 5748 5750 5752 5755 5759 5761 5763 5765 5766 5769 5771 5773 5775 5777 5779 5781 5783 5784 5786 5788 5790 5792 5794 5796 5798 5800 5802 5804 5805 5807 5808 5809 5810 5811 5812 5813 5813 5813 5814 5814 5813 5813 5813 5812
5731 5733 5736 5737 5738 5740 5741 5744 5747 5750 5751 5753 5755 5757 5760 5762 5764 5766 5768 5770 5772 5774 5775 5777 5779 5781 5783 5786 5788 5791 5793 5795 5796 5798 5800 5801 5803 5804 5805 5805 5806 5807 5807 5807 5807 5807 5807 5807 5806
5724 5726 5728 5731 5731 5732 5734 5736 5740 5741 5742 5744 5746 5748 5750 5753 5755 5757 5759 5761 5762 5764 5766 5768 5770 5772 5775 5777 5780 5783 5785 5787 5789 5791 5792 5794 5795 5797 5797 5798 5799 5800 5800 5800 5800 5800 5800 5800 5799
5717 5719 5721 5724 5723 5723 5724 5727 5731 5731 5732 5735 5736 5738 5740 5742 5745 5747 5749 5751 5753 5754 5756 5758 5761 5763 5766 5769 5771 5774 5777 5779 5781 5783 5784 5785 5787 5789 5790 5791 5791 5792 5793 5793 5793 5793 5793 5792 5792
5711 5712 5713 5715 5715 5715 5715 5718 5722 5722 5723 5725 5727 5728 5730 5732 5735 5737 5739 5741 5743 5745 5747 5749 5752 5754 5756 5759 5762 5765 5768 5771 5773 5774 5776 5778 5779 5780 5782 5783 5784 5784 5785 5785 5785 5785 5785 5785 5784
5703 5704 5705 5707 5707 5706 5707 5709 5713 5714 5714 5715 5717 5719 5721 5722 5725 5726 5728 5730 5732 5735 5737 5740 5742 5745 5747 5749 5753 5756 5759 5761 5764 5766 5767 5769 5770 5771 5773 5774 5775 5776 5776 5777 5777 5777 5777 5776 5776
5696 5696 5697 5698 5699 5698 5698 5700 5703 5704 5705 5706 5707 5709 5711 5712 5713 5715 5717 5719 5721 5724 5727 5729 5732 5735 5737 5740 5743 5746 5749 5751 5754 5756 5758 5760 5761 5763 5764 5765 5766 5767 5767 5768 5768 5768 5768 5768 5767
5690 5689 5689 5690 5691 5691 5690 5692 5695 5697 5696 5697 5698 5699 5701 5702 5703 5705 5707 5708 5710 5713 5716 5719 5721 5724 5727 5730 5732 5735 5738 5741 5745 5747 5749 5750 5751 5753 5754 5755 5756 5757 5758 5759 5759 5759 5759 5759 5759
5683 5683 5682 5682 5682 5683 5683 5681 5688 5688 5688 5688 5689 5690 5691 5692 5693 5694 5696 5697 5700 5702 5705 5708 5710 5713 5716 5719 5721 5724 5728 5731 5735 5737 5739 5740 5741 5743 5744 5745 5747 5748 5748 5749 5749 5749 5749 5749 5749
5676 5676 5675 5674 5674 5674 5676 5673 5679 5679 5679 5680 5681 5681 5681 5682 5683 5684 5685 5687 5688 5691 5694 5696 5699 5702 5705 5707 5710 5713 5717 5721 5724 5726 5728 5729 5731 5733 5734 5735 5736 5738 5738 5739 5739 5739 5739 5740 5739
5669 5668 5668 5667 5666 5667 5669 5666 5669 5671 5671 5671 5672 5672 5672 5673 5673 5674 5675 5676 5677 5680 5683 5685 5687 5691 5693 5696 5699 5702 5705 5709 5711 5714 5716 5718 5720 5722 5723 5724 5725 5726 5728 5728 5729 5728 5729 5729 5729
5662 5661 5660 5658 5658 5659 5661 5659 5662 5664 5663 5662 5663 5663 5664 5664 5664 5665 5666 5666 5668 5669 5672 5674 5676 5679 5682 5684 5687 5690 5693 5696 5699 5702 5704 5706 5708 5710 5712 5712 5713 5714 5716 5717 5717 5717 5718 5718 5718
5655 5654 5654 5652 5650 5651 5652 5651 5655 5655 5654 5654 5654 5654 5654 5655 5655 5655 5656 5657 5658 5660 5661 5663 5665 5668 5671 5673 5676 5678 5681 5684 5687 5689 5692 5694 5696 5699 5700 5700 5701 5702 5704 5705 5706 5706 5707 5707 5707
5647 5647 5646 5644 5641 5640 5642 5644 5647 5647 5646 5645 5645 5644 5644 5644 5645 5645 5646 5646 5647 5649 5650 5652 5654 5657 5659 5661 5664 5666 5669 5671 5674 5677 5679 5681 5684 5685 5687 5688 5689 5690 5691 5693 5694 5695 5695 5695 5695
5641 5639 5638 5636 5633 5631 5633 5635 5637 5637 5636 5635 5635 5634 5634 5634 5634 5634 5634 5635 5636 5637 5639 5640 5642 5645 5647 5649 5651 5654 5656 5659 5661 5663 5666 5668 5670 5672 5673 5675 5676 5678 5679 5680 5681 5682 5682 5682 5683
5633 5632 5629 5627 5626 5624 5622 5628 5628 5627 5626 5625 5624 5623 5623 5623 5623 5623 5623 5624 5624 5626 5627 5628 5630 5632 5634 5636 5638 5641 5643 5645 5648 5650 5652 5654 5656 5658 5660 5661 5663 5664 5665 5666 5667 5668 5669 5669 5670
5623 5623 5621 5620 5618 5615 5612 5617 5620 5618 5616 5615 5613 5612 5611 5611 5611 5611 5612 5612 5612 5614 5615 5616 5617 5619 5621 5623 5626 5628 5630 5632 5634 5637 5639 5641 5642 5644 5646 5647 5648 5649 5651 5652 5653 5654 5655 5656 5656